Temp
4 3 3 3 3 3 4 4 4 4 4 4 4 5 5 5 5 5 5 5 6 6 6 6 6 5 5 6 4 5 6 8 10 10 11 11 10 10 10 11 10 10 10 10 10
3 3 3 3 3 3 3 3 3 4 4 4 4 4 4 5 5 5 5 5 5 5 5 5 5 5 4 4 5 5 6 8 9 10 10 10 10 10 9 9 10 9 9 10 10
3 3 3 3 2 2 3 3 3 3 3 4 4 4 4 4 4 4 4 4 5 5 4 4 4 3 3 4 5 5 6 7 9 9 9 9 8 9 9 9 10 10 9 8 9
2 2 2 2 2 2 3 3 3 3 3 3 4 4 4 4 3 4 4 4 4 4 5 4 4 3 3 4 5 5 6 6 7 8 8 7 7 8 8 9 9 10 9 9 8
2 2 2 2 2 2 2 2 2 3 3 3 3 3 3 4 2 4 4 4 4 4 4 4 3 2 3 4 5 5 5 6 6 6 6 6 7 7 7 8 8 8 8 8 8
1 1 1 2 2 2 2 2 2 2 3 3 3 3 3 3 3 4 4 4 4 4 4 3 3 2 3 3 4 4 5 5 5 5 6 5 6 6 7 7 7 7 7 7 7
1 1 1 1 2 2 2 2 2 2 3 3 3 3 3 3 4 4 4 4 3 3 3 3 3 3 2 3 3 3 4 4 5 5 5 5 6 6 7 7 7 7 7 8 8
1 1 1 1 1 1 1 2 2 2 3 3 3 3 2 3 3 3 3 3 4 3 3 2 2 3 3 2 2 2 3 4 5 6 6 5 6 7 8 8 8 7 8 8 8
0 1 1 1 1 1 1 1 2 2 2 3 2 2 -0 2 3 2 2 2 2 2 3 2 2 2 2 1 2 3 4 5 6 7 7 6 6 7 8 8 8 8 8 8 8
-0 0 0 1 1 1 1 1 2 2 2 2 2 2 1 2 2 1 1 2 2 2 2 2 1 1 2 1 3 4 5 6 6 6 6 6 6 7 7 8 7 8 8 8 8
-0 -0 0 0 1 1 1 1 2 2 1 1 1 2 1 1 1 -0 1 1 -0 -1 -0 -0 0 2 3 3 3 3 3 4 4 6 6 6 6 7 7 7 7 7 7 8 8
-1 -1 -0 -0 0 0 1 1 0 -0 -0 1 1 0 0 0 -0 -1 -2 -3 -3 -2 -1 -1 1 2 2 3 3 4 3 3 4 5 5 6 6 6 6 7 7 7 7 7 7
-1 -1 -0 -0 -0 -0 -0 -0 -0 -0 -0 -1 -2 -2 -2 -2 -2 -4 -3 -4 -4 -3 -2 -1 1 1 0 1 2 3 4 4 4 5 5 5 5 6 6 6 7 7 7 7 7
-1 -1 -1 -1 -1 -1 -0 -1 -0 -0 -1 -4 -4 -4 -4 -4 -3 -5 -5 -5 -4 -4 -3 -3 -2 -2 -1 0 1 2 3 3 3 3 5 5 7 7 8 8 8 8 7 7 7
-2 -1 -1 -1 -1 -1 -2 -1 -1 -1 2 -4 -4 -3 -5 -4 -5 -4 -5 -4 -4 -4 -4 -3 -3 -3 -1 0 1 1 3 3 3 4 3 4 6 7 8 8 8 7 7 7 6
-2 -2 -2 -2 -2 -2 -2 -2 -1 -1 1 -3 -4 -5 -4 -4 -4 -4 -4 -4 -5 -5 -4 -3 -3 -3 -3 -2 -1 -0 1 2 2 3 4 4 6 7 8 8 8 7 7 6 5
-2 -2 -2 -2 -2 -2 -2 -2 -3 0 -3 -3 -5 -5 -5 -4 -4 -5 -5 -4 -5 -5 -5 -4 -3 -2 -2 -2 -2 -1 0 3 3 4 5 5 5 6 7 8 8 7 5 4 4
-3 -3 -3 -3 -3 -3 -3 -3 -3 -4 -4 -5 -6 -5 -4 -5 -5 -5 -4 -4 -5 -7 -7 -5 -4 -4 -5 -5 -2 -1 -0 3 2 4 5 5 7 7 7 7 6 6 4 4 4
-4 -3 -3 -3 -3 -3 -3 -5 -3 -5 -6 -7 -6 -4 -4 -4 -5 -5 -5 -5 -6 -7 -8 -7 -5 -6 -4 -3 -2 -0 0 1 3 4 5 6 6 6 7 6 5 4 4 3 3
-4 -4 -4 -4 -4 -4 -5 -5 -6 -6 -7 -7 -6 -6 -5 -5 -5 -5 -6 -6 -6 -6 -6 -8 -7 -5 -4 -3 -2 -0 0 2 2 3 4 7 7 7 6 6 5 4 3 3 3
-5 -5 -5 -5 -4 -5 -6 -5 -7 -7 -7 -7 -7 -7 -6 -6 -6 -6 -7 -7 -6 -6 -7 -7 -7 -5 -6 -4 -0 0 0 2 2 3 4 5 7 7 7 6 5 4 3 2 2
-6 -6 -5 -5 -6 -6 -6 -7 -6 -8 -8 -8 -8 -8 -7 -7 -7 -6 -6 -6 -6 -7 -7 -7 -8 -6 -5 -4 -2 -1 1 2 2 3 3 5 6 6 7 5 5 4 2 2 2
-7 -7 -6 -6 -6 -7 -8 -8 -8 -8 -8 -8 -8 -7 -8 -7 -7 -6 -6 -6 -6 -7 -7 -8 -7 -7 -2 -4 -5 -3 1 1 2 3 4 4 5 4 5 3 3 1 2 1 2
-7 -7 -6 -6 -6 -7 -8 -8 -8 -8 -9 -9 -8 -8 -7 -7 -7 -6 -6 -6 -7 -7 -7 -8 -8 -7 -6 -6 -6 -6 -3 -0 1 2 3 4 5 1 4 4 3 2 1 1 0
-7 -7 -8 -7 -6 -8 -9 -9 -9 -9 -9 -9 -8 -8 -8 -8 -7 -7 -6 -6 -7 -7 -7 -8 -7 -6 -6 -5 -5 -4 -4 -2 -1 -1 2 3 5 4 4 3 2 1 1 0 0
-8 -8 -7 -10 -9 -9 -10 -9 -9 -9 -10 -9 -8 -8 -8 -8 -8 -7 -7 -8 -7 -7 -7 -7 -7 -6 -5 -4 -4 -4 -3 -2 -2 -1 1 2 2 2 2 1 2 1 1 -0 -0
-8 -8 -9 -10 -10 -10 -9 -10 -9 -10 -10 -10 -10 -9 -9 -9 -9 -8 -7 -6 -8 -8 -8 -8 -7 -6 -4 -4 -5 -4 -4 -3 -3 -3 -1 0 2 2 3 2 0 0 -0 -1 -0
Height
3114 3114 3112 3111 3111 3109 3108 3107 3107 3106 3106 3105 3104 3103 3103 3102 3100 3099 3099 3098 3096 3096 3097 3098 3099 3101 3102 3102 3106 3110 3107 3101 3104 3107 3107 3108 3106 3107 3108 3110 3108 3111 3113 3110 3106
3110 3109 3109 3108 3107 3106 3105 3104 3104 3103 3102 3102 3101 3101 3101 3099 3097 3096 3096 3095 3093 3092 3093 3094 3095 3096 3097 3099 3101 3101 3098 3095 3101 3102 3103 3103 3103 3103 3104 3104 3105 3106 3105 3105 3106
3107 3107 3106 3106 3105 3104 3103 3103 3102 3100 3100 3100 3100 3099 3098 3097 3096 3094 3093 3091 3091 3091 3091 3090 3091 3091 3093 3097 3099 3096 3086 3095 3096 3098 3098 3097 3097 3100 3099 3099 3101 3103 3103 3103 3105
3103 3104 3104 3104 3103 3102 3102 3101 3100 3098 3097 3097 3097 3096 3095 3095 3099 3091 3090 3088 3087 3087 3088 3088 3088 3089 3089 3090 3094 3091 3089 3090 3090 3092 3092 3090 3092 3091 3093 3095 3097 3099 3099 3098 3099
3101 3101 3101 3102 3101 3099 3099 3099 3097 3096 3095 3094 3094 3092 3091 3090 3091 3088 3086 3086 3084 3084 3084 3084 3084 3087 3086 3086 3087 3084 3085 3085 3085 3084 3082 3084 3082 3083 3083 3088 3090 3091 3091 3091 3092
3099 3100 3099 3099 3098 3097 3097 3095 3094 3093 3092 3090 3089 3088 3087 3087 3085 3083 3082 3080 3079 3079 3079 3080 3080 3081 3081 3081 3081 3081 3080 3077 3077 3076 3077 3076 3074 3077 3074 3080 3080 3081 3082 3083 3085
3095 3097 3097 3097 3095 3094 3093 3092 3091 3090 3088 3086 3085 3083 3082 3083 3080 3078 3077 3076 3074 3075 3075 3074 3074 3074 3075 3076 3075 3074 3071 3070 3068 3070 3069 3072 3063 3064 3069 3071 3071 3073 3074 3075 3078
3092 3094 3094 3093 3092 3091 3090 3089 3088 3087 3084 3081 3081 3080 3076 3075 3074 3075 3074 3073 3071 3071 3071 3070 3069 3067 3067 3067 3065 3067 3066 3060 3062 3063 3062 3066 3042 3059 3062 3063 3062 3064 3066 3068 3070
3088 3089 3089 3090 3089 3087 3086 3085 3084 3083 3081 3077 3077 3076 3072 3070 3070 3070 3068 3068 3066 3066 3064 3064 3064 3061 3060 3058 3060 3057 3053 3054 3054 3056 3056 3055 3047 3053 3055 3057 3056 3058 3059 3060 3061
3085 3085 3086 3086 3086 3084 3083 3082 3080 3079 3076 3073 3072 3074 3067 3067 3065 3064 3063 3062 3059 3058 3058 3058 3056 3054 3051 3055 3046 3050 3049 3048 3046 3050 3049 3046 3043 3047 3049 3050 3049 3051 3053 3054 3056
3081 3081 3082 3081 3081 3080 3081 3078 3077 3073 3070 3070 3068 3066 3063 3062 3060 3059 3058 3058 3055 3057 3055 3055 3054 3035 3049 3050 3043 3047 3045 3043 3040 3043 3042 3038 3037 3039 3042 3042 3042 3043 3045 3047 3049
3077 3077 3077 3076 3077 3077 3077 3074 3073 3072 3067 3063 3061 3059 3057 3055 3056 3056 3054 3054 3051 3051 3051 3050 3037 3038 3043 3040 3037 3037 3036 3031 3033 3037 3037 3034 3031 3033 3034 3033 3034 3036 3037 3039 3041
3073 3074 3073 3072 3073 3073 3072 3070 3067 3065 3064 3057 3057 3056 3056 3055 3051 3051 3049 3047 3047 3045 3045 3040 3021 3036 3033 3030 3029 3025 3026 3022 3028 3030 3030 3029 3021 3023 3024 3024 3024 3025 3028 3031 3033
3069 3069 3070 3070 3071 3067 3067 3065 3062 3060 3059 3060 3058 3055 3053 3050 3053 3047 3044 3044 3043 3040 3037 3026 3025 3028 3025 3019 3021 3017 3019 3021 3023 3025 3021 3024 3006 3015 3012 3011 3012 3014 3018 3021 3024
3065 3065 3067 3066 3066 3065 3063 3060 3057 3056 3054 3059 3056 3053 3052 3052 3049 3049 3043 3041 3038 3034 3033 3017 3020 3019 3013 3009 3015 3007 3016 3015 3015 3015 3016 3015 3008 3001 3004 3004 3006 3009 3011 3014 3016
3060 3061 3062 3063 3062 3061 3058 3057 3056 3056 3051 3056 3054 3052 3050 3049 3047 3043 3042 3039 3035 3030 3025 3016 3012 3008 3004 3005 3008 3006 3008 3007 3008 3008 3006 3001 3002 2993 2997 2999 3001 3002 3005 3007 3010
3056 3057 3059 3059 3058 3056 3055 3054 3056 3052 3055 3055 3051 3049 3047 3045 3044 3042 3039 3036 3032 3025 3016 3006 3000 2996 2995 2992 2998 3000 3001 2997 2998 2994 2986 2992 2995 2986 2992 2994 2997 2998 3001 3005 3007
3050 3052 3054 3054 3053 3052 3051 3053 3053 3052 3052 3050 3049 3047 3045 3043 3043 3039 3036 3032 3030 3027 3017 3005 2981 2990 2983 2979 2984 2988 2992 2985 2982 2980 2977 2984 2982 2979 2988 2992 2995 2996 2999 3002 3003
3046 3047 3049 3049 3048 3048 3049 3050 3051 3050 3048 3047 3047 3045 3044 3044 3042 3037 3033 3031 3029 3025 3019 3005 2983 2976 2975 2970 2976 2977 2979 2984 2981 2978 2976 2972 2975 2980 2982 2985 2989 2994 2996 2998 2999
3041 3043 3044 3045 3044 3044 3046 3047 3047 3044 3045 3046 3045 3044 3043 3042 3040 3035 3032 3029 3027 3024 3020 3007 2983 2978 2969 2966 2965 2967 2973 2977 2978 2976 2970 2966 2965 2968 2976 2981 2985 2991 2993 2993 2993
3037 3039 3040 3041 3040 3041 3043 3044 3042 3040 3041 3044 3043 3042 3042 3039 3037 3034 3032 3028 3024 3019 3015 3005 2994 2977 2970 2964 2960 2964 2965 2967 2972 2974 2969 2966 2963 2966 2968 2973 2980 2986 2989 2991 2991
3033 3035 3035 3036 3038 3037 3040 3038 3038 3039 3038 3039 3039 3040 3039 3037 3034 3032 3029 3026 3022 3017 3010 3003 2992 2981 2964 2958 2962 2959 2960 2963 2964 2968 2969 2968 2965 2964 2963 2969 2977 2981 2986 2988 2987
3029 3030 3030 3031 3033 3035 3034 3035 3035 3036 3038 3037 3038 3038 3036 3034 3033 3029 3026 3024 3020 3016 3011 3004 2995 2982 2965 2961 2963 2962 2958 2960 2963 2965 2963 2967 2966 2965 2966 2968 2974 2974 2977 2983 2984
3025 3026 3026 3026 3028 3029 3031 3033 3034 3032 3032 3033 3036 3035 3033 3031 3030 3026 3023 3020 3017 3012 3008 3004 2997 2994 2985 2976 2972 2964 2954 2958 2958 2961 2960 2960 2962 2967 2960 2969 2967 2956 2971 2981 2983
3019 3021 3023 3023 3024 3025 3028 3029 3030 3031 3030 3032 3032 3032 3030 3029 3027 3024 3020 3014 3013 3008 3005 3003 2993 2989 2982 2976 2968 2959 2955 2955 2958 2960 2957 2959 2959 2963 2962 2966 2967 2970 2976 2979 2978
3015 3018 3019 3021 3021 3022 3024 3026 3027 3029 3029 3030 3030 3029 3028 3027 3025 3019 3016 3014 3005 3003 3001 2998 2990 2987 2977 2970 2966 2960 2957 2957 2957 2958 2958 2959 2958 2963 2963 2961 2963 2967 2973 2974 2976
3011 3013 3016 3017 3017 3021 3022 3022 3024 3025 3025 3025 3025 3025 3024 3023 3020 3014 3010 3005 3003 3001 2998 2995 2990 2985 2975 2970 2964 2961 2958 2957 2956 2955 2957 2959 2960 2959 2962 2960 2953 2966 2967 2966 2971
Wind_Speed
16 15 15 14 14 14 14 14 14 14 14 15 16 18 18 19 18 18 18 19 20 20 24 23 23 21 23 27 24 20 28 34 29 26 25 19 17 16 16 22 16 19 18 18 26
15 14 14 14 14 14 14 14 13 13 13 14 14 16 16 16 17 15 15 17 16 16 16 20 22 21 23 22 24 29 30 34 25 23 24 22 17 12 18 22 22 20 22 31 27
14 13 13 13 13 14 13 13 13 12 12 13 14 15 15 16 16 8 15 15 16 17 16 14 17 19 23 23 24 29 40 28 26 24 26 26 24 21 21 22 22 22 20 20 17
13 12 12 13 13 14 14 14 14 14 15 16 16 17 16 15 7 16 20 18 16 15 17 17 16 15 21 25 28 35 35 30 28 30 27 29 26 27 26 26 23 22 23 23 22
13 11 12 12 14 15 14 15 15 16 16 17 18 19 18 17 11 17 18 17 18 16 17 16 15 17 21 24 24 35 34 32 31 30 31 30 33 30 31 26 26 28 28 27 28
13 11 11 12 14 15 15 15 16 17 19 21 21 20 18 15 16 19 21 22 20 20 19 20 19 15 25 28 27 28 30 29 33 33 34 32 33 31 34 29 31 33 32 31 29
13 12 13 13 14 16 17 17 18 20 22 24 22 20 19 18 18 17 16 17 13 15 17 19 23 25 18 20 23 29 31 33 33 31 29 27 38 38 31 31 34 32 30 32 32
14 13 13 13 14 17 18 19 20 22 24 24 21 20 17 17 11 16 19 18 20 22 23 20 17 22 28 28 30 27 29 34 31 28 30 28 51 30 19 22 32 33 33 33 33
15 13 13 14 15 17 19 21 23 23 23 22 19 11 10 12 19 19 24 27 34 34 30 30 27 28 25 23 27 31 37 35 34 26 28 24 36 24 24 28 26 24 22 24 25
15 13 14 14 14 17 20 23 23 21 19 18 10 10 16 20 25 24 25 24 24 23 24 29 27 30 29 23 33 30 31 33 32 27 29 31 33 28 27 23 22 24 26 27 25
15 13 14 14 15 17 20 22 23 23 21 18 20 16 18 16 15 17 21 23 25 18 18 15 25 44 30 31 38 32 34 37 33 25 25 30 32 30 27 29 31 30 28 26 25
14 14 14 14 16 17 19 19 18 17 20 19 15 12 12 17 22 22 21 20 21 21 20 22 38 36 31 34 37 36 37 42 40 34 32 34 34 31 29 32 32 32 31 31 29
13 13 13 15 17 19 18 18 18 17 16 11 7 7 14 22 20 13 21 18 19 23 21 27 44 26 30 33 40 43 41 43 36 31 28 31 41 37 36 35 36 37 35 32 30
13 12 13 15 17 19 19 20 18 17 2 3 4 10 15 21 3 19 12 20 20 26 25 35 37 34 32 38 39 37 39 37 34 30 31 29 31 32 30 28 28 30 32 31 29
13 12 12 13 15 17 18 19 17 14 4 4 3 14 16 16 18 15 17 22 24 27 23 39 38 35 38 33 27 45 34 33 29 29 31 33 32 26 21 27 23 18 17 18 19
12 10 11 12 13 15 16 17 16 3 2 2 5 14 17 15 18 16 19 16 20 22 24 30 33 32 41 43 38 31 30 34 28 29 23 37 35 33 27 17 15 15 16 17 13
11 11 11 11 12 14 14 14 5 4 4 2 9 15 16 15 19 17 20 19 18 25 35 39 28 26 38 40 37 35 30 23 20 20 20 35 33 34 18 19 19 14 13 11 9
12 10 10 10 11 12 11 8 3 2 4 7 10 13 10 14 17 21 20 21 16 21 30 29 43 26 29 28 38 40 37 27 24 16 23 33 24 31 24 26 16 16 15 11 8
12 10 9 9 10 9 7 1 2 4 6 8 10 7 7 15 18 18 20 15 14 18 19 32 35 52 30 24 26 35 43 39 39 29 20 22 29 26 20 18 23 17 14 11 6
11 11 8 9 7 7 2 5 3 8 6 4 5 5 12 16 16 19 19 9 20 16 24 30 51 32 30 18 24 30 33 36 38 23 23 21 25 29 24 20 25 20 14 10 10
11 9 8 8 7 4 2 5 5 8 7 3 6 11 13 15 14 20 13 22 14 27 25 35 18 39 26 5 14 21 32 33 30 36 18 15 21 23 20 23 27 21 16 11 7
12 10 8 8 3 4 3 5 8 5 5 5 7 9 11 12 18 21 18 18 23 23 30 22 26 26 40 16 9 12 27 33 23 28 33 28 23 7 20 19 21 23 17 12 8
11 14 11 8 5 6 9 7 7 6 6 4 7 9 10 12 19 16 19 21 15 25 21 25 16 24 26 17 23 13 17 27 31 30 30 21 24 9 10 18 25 25 18 10 9
13 9 10 9 11 10 11 7 7 9 9 9 10 11 9 13 12 17 24 18 24 21 22 17 21 27 22 28 28 35 23 23 23 31 31 31 27 11 18 19 17 11 12 10 8
16 12 11 7 8 9 8 7 8 6 7 8 8 11 10 16 19 20 22 27 20 15 17 20 27 23 28 29 24 24 13 20 16 20 26 26 26 20 16 21 20 18 15 13 11
18 12 12 8 9 10 10 8 10 9 10 9 12 11 14 17 19 27 26 23 31 19 21 19 18 22 29 13 22 16 0 17 18 27 22 22 25 16 18 24 27 24 19 18 12
18 14 11 12 9 11 10 8 8 11 11 12 12 14 17 18 21 25 28 29 30 27 23 18 15 22 22 18 26 5 13 4 7 9 22 22 17 17 18 25 23 19 18 17 12
Wind_Direction
292 293 291 296 297 297 297 302 307 309 307 308 309 306 309 309 309 305 297 288 280 266 265 261 259 247 248 242 231 240 241 246 248 249 256 257 255 240 232 228 241 236 222 216 226
295 295 301 303 302 302 305 309 311 312 316 318 321 318 321 318 312 308 303 297 294 290 275 265 255 247 246 250 233 230 242 244 243 248 253 251 256 243 241 234 232 227 230 225 229
287 292 296 294 296 301 306 308 309 312 318 322 322 321 324 327 336 298 308 303 295 296 298 288 263 244 246 240 242 240 245 248 250 251 251 253 249 251 247 239 235 237 240 238 226
276 283 286 288 293 296 300 304 307 313 319 321 320 319 322 326 332 303 307 304 301 297 292 285 283 270 252 248 246 249 250 253 256 249 253 256 261 250 247 244 237 237 242 231 233
269 273 277 284 287 290 294 297 304 311 317 319 318 318 321 323 285 311 306 300 296 292 288 283 273 269 266 261 259 251 258 259 257 256 254 256 255 258 251 247 243 240 238 241 241
263 267 274 279 283 287 291 297 304 311 315 317 316 317 318 311 301 306 299 292 287 279 274 275 274 263 266 261 257 259 259 262 260 257 255 260 260 258 254 254 249 246 244 243 242
256 265 271 274 283 289 294 299 305 309 311 312 314 318 311 308 311 300 296 294 294 290 280 273 266 258 259 272 273 263 265 263 257 255 252 256 262 252 261 255 249 247 247 245 243
257 262 270 280 284 288 292 298 305 305 307 310 313 319 307 312 304 307 303 288 287 299 288 271 265 267 264 259 261 262 263 264 262 258 257 247 258 256 266 253 248 249 248 243 242
257 263 272 278 282 288 297 304 303 304 307 310 317 325 279 296 296 300 291 292 291 292 283 274 267 267 264 258 264 257 256 261 265 254 249 239 260 259 246 253 250 244 242 239 239
257 266 273 277 285 296 303 303 307 307 304 305 320 325 296 300 300 297 294 300 303 306 295 277 275 266 255 239 245 258 258 261 262 255 246 252 256 254 251 249 249 241 245 242 238
257 267 275 285 296 301 305 309 323 326 323 314 304 296 292 305 316 321 308 305 304 310 307 287 259 253 253 255 263 263 262 263 256 260 256 255 258 253 253 251 250 250 242 239 236
255 265 279 295 302 308 309 321 324 322 319 309 303 311 319 330 324 320 312 328 317 306 296 284 259 268 265 257 259 257 253 254 258 259 258 261 261 255 251 250 250 249 248 246 246
252 266 286 300 309 311 319 324 326 329 320 306 321 347 338 335 330 334 324 327 313 303 295 273 267 283 271 262 256 252 251 254 257 263 256 256 263 259 260 256 252 249 248 246 247
250 268 286 302 310 318 327 332 335 335 238 292 338 311 341 344 317 327 328 335 322 308 298 274 281 275 273 257 249 263 249 256 256 257 256 244 262 262 260 254 246 250 246 246 246
249 266 286 301 312 325 331 334 337 335 267 267 327 334 340 344 329 325 322 323 315 309 296 285 290 276 259 258 261 253 253 253 252 248 250 249 256 258 256 250 242 241 233 229 222
247 266 284 297 311 327 333 336 336 334 148 289 330 325 335 343 332 324 325 325 318 313 311 297 294 273 266 259 256 260 258 247 250 243 240 241 241 254 253 240 241 222 211 208 210
248 264 280 300 323 328 334 340 340 274 329 287 317 328 334 334 336 325 330 323 333 335 331 317 313 297 278 254 246 245 248 237 230 229 233 236 234 241 237 245 224 211 195 184 185
249 261 279 303 322 327 336 349 231 263 295 291 317 324 330 337 327 330 325 315 318 329 322 329 315 318 312 278 247 234 235 233 222 218 238 236 249 242 236 233 217 202 186 182 175
249 264 282 309 318 327 337 147 256 248 268 314 332 317 327 327 322 328 324 308 332 340 329 323 302 317 322 261 248 228 229 232 242 241 254 241 226 241 234 223 199 192 183 180 180
249 264 286 302 312 325 322 224 246 255 275 307 314 305 317 325 330 333 325 302 328 329 326 312 305 320 315 277 249 230 220 228 227 240 249 234 236 218 220 204 200 202 195 189 221
249 267 282 290 315 306 162 228 231 270 269 263 279 290 300 314 324 326 307 309 321 324 323 317 311 310 314 253 268 207 226 226 222 222 245 246 243 243 238 199 197 199 196 197 193
242 247 263 286 297 249 232 217 264 233 267 278 284 284 291 308 318 313 311 312 322 324 325 324 315 305 303 281 241 287 216 219 217 230 229 247 249 302 201 182 197 188 185 188 215
233 254 263 272 232 216 236 242 230 228 237 252 273 277 286 307 310 301 306 315 316 321 320 319 315 317 333 359 343 316 254 221 224 222 228 228 247 217 204 177 190 185 168 173 216
230 241 262 255 240 202 223 216 224 234 244 248 258 277 290 302 305 300 304 308 317 321 310 332 305 300 295 310 312 305 256 233 238 225 227 232 232 210 179 193 203 141 159 167 153
228 231 246 263 228 196 214 218 214 232 254 242 268 268 286 302 301 306 304 309 319 315 325 323 302 303 305 310 304 314 256 243 241 234 248 236 227 217 209 197 190 187 182 178 193
226 229 239 226 229 212 219 222 224 237 249 246 257 271 277 288 292 302 303 309 309 311 313 320 300 310 308 311 328 307 195 213 244 237 244 247 265 294 235 221 193 186 191 193 193
231 235 227 229 226 211 224 221 230 232 256 252 259 269 278 290 289 286 292 299 289 294 301 301 308 314 303 321 317 239 353 310 242 247 231 247 249 250 240 224 188 177 187 168 202